Home > Weather > Minsk > Past weeks

Flag for Belarus Weather for the Past 2 Weeks in Minsk, Belarus

Now
36 °F

Clear.


Feels Like: 27 °F
Forecast: 31 / 41 °F
Wind: 13 mph from South

Location: Minsk

Current Time: Feb 7, 2016 at 9:29:23 PM

Latest Report: Feb 7, 2016 at 9:00 PM


Visibility: 10 mi

Pressure: 30.04 "Hg

Humidity: 70%

Dew point: 27 °F

Location of MinskLocation

Historic Weather in Minsk — Graph

°F

Minsk Temperature Yesterday

Maximum temperature yesterday: 36 °F (at 2:00 PM)
Minimum temperature yesterday: 30 °F (at 8:00 AM)
Average temperature yesterday: 33 °F

High & Low Weather Summary for the Past Weeks

 TemperatureHumidityPressure
High45 °F (Feb 2, 3:30 PM)100% (Jan 25, 5:00 AM)30.48 "Hg (Jan 25, 5:00 AM)
Low-6 °F (Jan 23, 11:30 PM)60% (Feb 6, 2:00 PM)29.39 "Hg (Jan 31, 9:00 AM)
Average32 °F87%29.86 "Hg
* Reported Jan 23 8:00 PM — Feb 7 8:00 PM, Minsk, Weather by CustomWeather, © 2016

Note: Actual official high and low records may vary slightly from our data, if they occured in-between our weather recording intervals... More about our weather records

Advertising

Minsk Weather History for the Previous 24 Hours

 ConditionsComfort  
Time TempWeatherWind HumidityBarometerVisibility
8:00 PM
Sun, Feb 7
37 °FClear.10 mph65%30.04 "Hg10 mi
7:30 PM37 °FClear.10 mph65%30.04 "Hg10 mi
7:00 PM37 °FSunny.8 mph70%30.04 "Hg10 mi
6:30 PM39 °FSunny.10 mph65%30.04 "Hg10 mi
6:00 PM39 °FSunny.13 mph65%30.04 "Hg10 mi
5:30 PM39 °FSunny.13 mph65%30.04 "Hg10 mi
5:00 PM39 °FSunny.13 mph65%30.04 "Hg10 mi
4:30 PM41 °FPassing clouds.6 mph61%30.04 "HgN/A
4:00 PM41 °FPassing clouds.10 mph61%30.04 "HgN/A
3:30 PM41 °FPassing clouds.8 mph66%30.04 "HgN/A
3:00 PM39 °FSunny.10 mph65%30.04 "Hg10 mi
2:30 PM39 °FPassing clouds.10 mph65%30.07 "HgN/A
2:00 PM39 °FSunny.10 mph65%30.07 "Hg10 mi
1:30 PM37 °FPassing clouds.8 mph70%30.07 "HgN/A
1:00 PM37 °FPassing clouds.8 mph70%30.09 "HgN/A
12:30 PM36 °FPassing clouds.8 mph75%30.09 "HgN/A
12:00 PM34 °FSunny.10 mph75%30.09 "Hg10 mi
11:30 AM34 °FPassing clouds.8 mph75%30.09 "HgN/A
11:00 AM32 °FSunny.10 mph80%30.09 "Hg10 mi
10:30 AM32 °FPassing clouds.6 mph80%30.09 "HgN/A
10:00 AM32 °FSunny.8 mph80%30.09 "Hg10 mi
9:30 AM30 °FClear.8 mph86%30.09 "Hg10 mi
9:00 AM30 °FClear.8 mph86%30.09 "Hg10 mi
8:30 AM30 °FPassing clouds.8 mph86%30.09 "HgN/A
8:00 AM32 °FPartly cloudy.6 mph80%30.09 "HgN/A
7:30 AM32 °FPassing clouds.6 mph87%30.09 "HgN/A
7:00 AM32 °FPartly cloudy.6 mph87%30.09 "HgN/A
6:30 AM32 °FOvercast.8 mph87%30.09 "HgN/A
6:00 AM32 °FPassing clouds.6 mph87%30.09 "HgN/A
5:30 AM32 °FPassing clouds.6 mph87%30.12 "HgN/A
5:00 AM32 °FPassing clouds.8 mph87%30.09 "HgN/A
4:30 AM32 °FPassing clouds.6 mph87%30.12 "HgN/A
4:00 AM32 °FPassing clouds.6 mph87%30.12 "HgN/A
3:30 AM32 °FPartly cloudy.3 mph80%30.12 "HgN/A
3:00 AM32 °FPassing clouds.6 mph80%30.12 "HgN/A
2:30 AM32 °FOvercast.6 mph80%30.12 "HgN/A
2:00 AM32 °FOvercast.6 mph87%30.12 "HgN/A
1:30 AM32 °FOvercast.6 mph87%30.12 "HgN/A
1:00 AM32 °FOvercast.6 mph87%30.15 "HgN/A
12:00 AM32 °FPassing clouds.6 mph80%30.15 "HgN/A
11:30 PM
Sat, Feb 6
32 °FPassing clouds.3 mph80%30.15 "HgN/A
11:00 PM32 °FPassing clouds.6 mph75%30.15 "HgN/A
10:30 PM32 °FPassing clouds.3 mph75%30.15 "HgN/A
10:00 PM32 °FPassing clouds.3 mph75%30.15 "HgN/A
9:30 PM32 °FPassing clouds.6 mph75%30.15 "HgN/A
9:00 PM32 °FPassing clouds.3 mph75%30.15 "HgN/A
Weather by CustomWeather, © 2016

See weather overviewHow to use our weather pages